Vorticity
6 6 6 6 6 6 7 6 5 4 4 3 4 4 5 6 7 7 6 7 9 12 11 8 6 5 5 6 8 8 8 6 2 4 11 15 13 7 4 3 3 3 5 6 5 6 4 4 5 5 6 4 6 6 5 3 4 6 -3 2 10 5 5 5 6 12 17 15 4 2 8 8 8 4 5 12 8 3 4 3 6 6 4 7 6 7 9 6
6 6 6 6 6 6 6 6 7 6 6 4 4 3 3 4 5 6 6 7 7 8 11 11 9 6 5 4 6 8 8 9 6 3 3 9 15 14 9 4 4 3 5 4 2 4 3 4 2 4 6 3 7 5 4 4 2 6 -4 -1 13 5 2 5 7 12 14 14 5 0 2 4 7 3 4 9 4 2 3 1 6 5 3 4 2 8 14 9
7 7 6 6 6 6 6 6 6 6 7 6 6 4 3 3 2 4 4 6 6 7 8 10 11 9 8 5 5 6 7 8 9 8 3 2 6 13 13 7 6 4 4 2 2 4 2 4 3 3 5 2 6 4 5 2 1 8 -6 0 12 2 3 0 5 14 9 9 7 3 2 2 6 8 5 -1 -2 6 7 3 5 5 3 3 1 5 14 11
8 7 8 8 7 7 6 6 6 6 7 7 7 7 5 3 2 2 2 3 4 5 6 7 9 10 10 8 6 4 5 6 8 10 9 5 2 6 10 9 10 7 5 5 4 5 3 4 4 4 4 2 3 3 7 -0 2 7 -7 12 20 -2 4 2 -0 10 10 11 13 8 3 2 3 7 10 5 2 7 6 5 7 7 4 5 3 3 12 10
11 10 9 9 9 9 8 7 6 6 7 6 7 7 8 6 5 3 2 2 2 3 4 6 7 9 10 10 9 6 4 5 7 10 9 10 5 2 5 6 10 11 8 6 5 6 4 3 2 3 3 3 2 1 7 1 3 5 -10 10 17 -3 4 5 -1 2 7 13 18 15 3 1 -0 1 12 11 7 6 7 9 10 8 2 6 4 2 10 7
13 12 11 11 10 10 11 10 9 8 7 7 7 7 8 8 8 6 4 3 2 3 2 4 6 7 8 9 10 9 7 5 7 10 8 11 10 6 3 2 6 9 10 9 6 5 4 4 2 3 2 3 4 1 4 3 4 5 -3 3 5 1 3 4 4 -1 2 9 20 25 12 7 4 -0 5 4 5 4 5 9 10 9 5 6 5 3 9 5
10 11 11 11 10 10 10 10 12 11 9 8 7 7 7 8 8 8 7 6 4 3 3 3 4 5 6 7 8 10 9 5 4 7 7 8 10 11 7 3 3 5 8 9 8 6 4 5 3 3 3 2 4 3 4 6 5 2 3 7 3 3 2 3 5 -1 0 5 19 26 9 3 4 2 2 1 6 2 3 8 5 7 9 10 8 6 8 5
10 10 10 11 11 11 10 9 10 11 12 12 10 8 7 7 8 9 9 8 6 4 4 3 3 4 5 6 7 7 9 10 6 4 6 6 7 10 11 9 4 2 5 7 8 8 5 5 4 4 4 3 4 4 4 5 8 3 1 7 4 4 5 3 4 2 1 2 15 24 10 4 5 8 5 1 5 2 2 6 4 6 9 12 12 7 6 7
12 12 13 13 13 13 13 12 11 10 11 12 13 12 10 9 8 8 9 9 9 7 6 5 4 5 5 6 7 5 7 11 9 7 6 5 5 7 10 12 9 4 2 3 6 7 7 6 5 5 3 6 7 6 6 3 7 7 3 6 4 4 6 4 4 3 2 3 14 25 18 8 4 7 7 1 2 3 4 5 5 4 5 10 11 6 4 7
12 13 13 13 13 13 14 14 14 13 11 10 12 13 13 12 10 9 9 9 10 9 8 6 4 5 5 5 5 5 6 7 9 10 8 6 5 5 6 10 12 10 4 2 3 5 7 6 6 8 4 5 8 8 8 5 8 10 5 7 7 5 5 6 6 5 2 3 14 23 19 9 3 5 10 10 6 3 5 5 5 3 5 9 7 5 5 6
12 12 12 12 12 12 13 13 13 14 14 12 11 12 14 13 12 11 9 9 10 10 10 8 6 5 5 6 4 5 7 7 7 9 10 9 7 5 5 6 10 12 10 5 2 2 4 4 5 7 6 6 7 7 9 4 7 13 6 5 9 6 6 8 6 6 0 3 23 29 19 11 7 6 4 6 7 5 7 6 6 4 4 7 6 4 5 4
13 12 12 12 12 12 13 13 13 13 14 15 13 11 11 13 14 12 11 10 9 10 11 10 8 5 5 6 6 5 6 7 7 7 9 11 9 7 5 4 6 9 12 11 4 2 2 2 4 3 6 9 6 5 10 6 4 11 8 3 10 8 6 7 6 7 -0 6 29 27 14 9 5 8 5 1 4 6 7 6 5 6 5 6 7 5 4 3
13 13 13 13 13 13 14 14 14 14 14 14 15 14 12 11 13 13 12 11 10 10 10 10 10 8 6 5 6 7 5 5 7 6 6 9 10 10 7 4 4 5 10 13 10 6 2 1 3 2 3 5 5 8 11 7 3 8 9 3 7 9 4 4 7 6 -3 3 21 13 6 12 6 4 4 2 6 6 6 7 5 6 6 6 5 5 6 5
12 12 13 14 14 14 15 15 14 14 14 14 14 16 15 13 12 13 13 12 11 9 8 10 10 8 7 6 6 7 6 6 7 6 5 7 9 11 10 6 4 3 5 10 12 11 7 3 0 0 3 3 5 12 11 5 3 5 9 4 3 10 8 4 6 0 -5 3 17 14 3 10 9 4 10 9 5 5 4 6 6 6 7 5 4 5 7 5
11 11 13 14 15 16 16 15 15 17 19 18 17 16 16 16 14 12 14 14 12 10 9 9 9 10 9 8 6 5 7 7 6 6 5 5 7 10 11 9 6 4 3 5 9 13 12 7 2 -2 1 0 -4 1 5 4 6 3 6 5 2 9 7 5 7 -4 -5 5 12 15 8 8 4 0 16 15 4 6 4 3 3 5 7 5 4 6 7 5
11 13 13 14 15 16 16 16 16 18 19 20 20 19 17 17 16 13 13 14 14 12 10 8 8 9 8 8 8 7 8 7 6 6 6 5 5 7 10 10 9 6 5 3 4 10 13 11 7 3 1 -2 -8 -4 1 2 8 4 0 4 4 7 6 8 11 -6 -4 9 6 3 7 15 9 -3 2 -0 1 8 4 6 6 3 7 5 5 7 6 5
12 13 14 15 14 14 15 15 16 17 18 19 19 21 20 18 18 16 14 13 14 15 11 10 9 9 9 10 12 11 7 8 8 6 6 6 5 6 9 12 11 8 7 4 3 5 10 13 10 7 4 -2 -4 1 4 2 9 8 1 5 6 2 4 11 11 -1 -1 7 7 4 3 19 21 5 4 4 6 8 0 4 5 5 8 5 7 6 5 6
12 13 14 14 14 14 14 14 16 16 17 19 19 20 21 20 19 18 16 13 13 15 13 10 9 10 11 9 8 9 7 6 8 8 7 6 6 6 6 10 12 10 9 6 5 3 6 11 11 11 9 3 0 -0 2 2 3 6 0 3 8 3 6 12 8 6 2 -6 6 10 -6 17 32 7 7 17 10 8 8 7 3 6 9 5 7 5 4 6
12 13 13 12 13 14 14 14 15 15 17 19 21 22 23 23 21 18 17 14 12 14 14 13 11 9 9 8 6 5 8 9 9 9 8 7 7 6 5 7 10 11 11 8 6 5 4 8 9 12 11 8 6 0 1 -1 -7 2 6 3 4 5 10 13 9 10 6 -9 3 16 -7 3 29 11 2 8 2 7 13 10 4 4 8 6 6 4 4 6
12 12 11 13 13 13 13 12 13 16 18 20 22 25 27 27 23 20 17 13 13 13 12 14 15 13 11 12 11 7 10 13 11 9 8 8 7 7 6 6 8 10 11 10 8 6 4 6 7 9 10 9 11 6 3 -0 -10 -1 18 17 -3 -8 9 16 10 10 15 -2 -13 11 13 -1 10 16 13 9 3 6 4 3 7 4 5 6 3 4 4 6
12 11 12 13 12 11 10 9 11 13 17 21 22 24 28 29 27 29 22 13 14 12 11 14 14 14 12 11 11 9 9 9 8 8 9 9 7 7 7 5 7 8 9 10 10 9 5 5 5 7 9 10 12 10 8 7 -1 -11 4 25 5 -13 9 18 9 6 12 9 -14 -7 12 2 2 12 17 20 15 14 8 4 11 9 5 5 3 5 5 7
12 13 13 12 11 10 8 7 9 10 17 22 20 20 23 23 25 32 29 20 18 12 12 17 15 15 15 14 17 15 14 13 11 10 9 10 9 7 7 6 6 6 9 10 9 10 9 6 4 5 9 10 10 9 9 10 10 -8 -16 13 13 -7 9 17 10 9 5 11 5 -4 4 5 6 8 11 16 6 4 11 7 6 6 5 6 2 4 7 7
13 14 14 12 10 10 8 7 7 12 21 24 20 19 19 20 22 27 28 24 24 20 18 21 19 17 15 15 17 13 14 16 14 13 11 11 10 7 6 6 6 6 7 7 8 9 10 8 5 5 6 9 10 9 9 7 9 5 -12 -1 8 -11 -1 18 16 14 5 4 9 2 5 10 6 4 7 11 2 -0 9 7 2 1 2 4 2 4 8 5
12 15 16 14 11 9 8 6 8 18 25 23 19 17 17 20 22 23 24 21 24 25 22 25 26 22 17 16 17 14 13 13 12 14 14 11 9 8 9 7 5 7 7 6 8 8 10 12 9 7 5 5 10 8 9 7 4 13 2 -5 8 -7 -13 12 22 18 6 1 8 2 3 15 16 11 4 4 8 9 11 6 1 4 6 4 4 5 6 2
12 15 18 18 12 8 8 6 12 22 27 20 16 18 18 18 22 23 20 17 21 25 24 26 27 26 24 23 24 21 15 11 10 12 12 13 11 8 9 8 5 6 7 6 7 7 8 14 11 8 7 4 8 8 8 10 6 13 9 -8 5 11 -6 -3 9 12 7 0 5 2 -4 5 15 18 13 4 4 8 11 10 4 4 4 4 6 6 4 4
12 15 20 20 12 9 8 7 13 24 26 16 14 19 18 19 23 20 17 17 19 20 24 24 21 25 24 21 24 19 15 13 9 10 11 11 10 8 8 9 9 6 6 6 5 7 8 11 11 8 10 4 3 9 8 10 7 7 12 -4 -13 1 4 14 20 7 6 14 15 9 -1 0 3 3 10 7 1 7 10 8 7 6 5 6 6 5 5 3
10 14 19 19 14 11 7 6 15 26 23 13 14 17 18 20 18 17 23 26 20 13 20 22 18 22 16 14 20 16 22 27 13 9 15 13 9 9 8 6 8 7 6 5 3 6 8 9 10 7 11 7 0 7 8 11 10 3 22 21 -8 -18 -18 13 44 17 -5 9 20 18 1 0 8 -1 2 10 3 6 9 6 5 7 13 11 1 4 11 7
9 13 16 18 16 11 7 7 16 26 20 12 14 14 16 19 14 19 18 8 10 15 20 22 21 25 21 21 21 7 16 31 23 17 15 15 13 8 9 9 7 8 7 6 3 4 7 7 11 8 7 9 5 4 5 11 5 -7 19 31 10 -4 -29 -25 19 19 -6 -10 11 34 13 -7 7 7 4 11 8 4 7 10 2 -0 16 18 4 3 5 4
8 11 14 19 17 9 7 8 15 27 21 9 12 14 17 15 12 21 7 -8 10 17 14 18 21 28 26 24 20 5 4 9 18 32 18 11 17 6 7 11 5 8 9 5 3 9 12 5 7 12 7 8 11 6 3 10 5 -9 7 16 6 9 -6 -24 -7 7 1 -13 -4 33 32 4 1 7 9 10 14 12 6 10 3 -10 1 11 8 8 6 8
7 9 12 18 19 11 6 8 16 27 21 9 11 14 15 13 12 21 11 4 17 15 14 19 16 24 26 21 22 16 14 4 2 22 14 6 18 9 7 14 6 7 12 3 -4 9 21 11 4 11 10 8 10 9 4 4 5 2 8 13 6 6 8 1 -5 -4 -4 -9 -1 17 25 18 -4 -11 6 9 11 17 7 5 7 -5 -8 -3 -1 3 5 9
7 8 11 15 20 14 5 8 15 25 25 11 7 12 17 15 12 16 13 10 13 12 19 17 12 24 23 18 23 11 15 28 16 15 14 7 13 13 10 14 9 7 10 4 -3 5 13 8 4 6 7 10 7 9 13 4 -2 3 5 11 15 7 7 11 7 5 -11 -19 12 17 0 17 14 -11 -1 9 8 14 9 2 3 3 1 0 1 0 -2 -3
8 8 10 13 20 16 7 7 12 22 26 13 9 21 25 18 9 7 11 13 13 16 21 14 16 27 16 12 28 12 5 31 24 10 20 14 7 16 13 9 16 15 12 7 1 10 14 7 7 6 4 10 5 2 14 9 -3 5 5 3 16 15 8 9 9 19 1 -31 -1 23 -5 2 23 6 -6 -1 6 12 12 8 4 3 4 5 7 6 3 2
9 10 10 11 17 18 11 7 10 18 20 16 20 25 17 11 10 5 8 14 11 14 21 19 17 17 8 7 24 25 16 31 27 12 28 23 8 24 16 1 9 10 18 29 10 7 21 11 4 9 6 7 6 1 13 18 1 1 8 2 9 15 13 12 2 11 18 -21 -24 14 11 -4 5 14 6 -5 -1 11 14 12 8 5 6 7 6 6 8 9
9 11 12 12 14 18 14 7 10 13 16 21 23 18 8 9 13 7 12 18 12 15 21 19 13 10 10 8 11 18 16 23 20 7 21 19 7 33 30 8 10 -7 -3 32 30 19 28 19 4 5 8 9 7 -6 0 31 28 4 5 6 4 6 15 27 12 8 28 7 -19 -2 10 5 1 6 14 4 -6 6 16 12 8 7 6 7 7 6 10 10
6 9 13 15 12 16 16 9 8 10 17 26 18 9 8 10 13 9 14 20 13 15 18 14 12 10 12 12 10 11 9 18 17 -0 15 20 8 30 34 20 27 3 -26 -8 19 32 33 36 29 7 4 12 12 -6 -24 1 37 27 8 4 0 -6 4 31 28 15 30 31 16 9 -2 5 16 4 3 7 -3 1 14 13 8 9 8 7 10 8 9 9
4 6 13 17 14 14 16 11 8 6 17 28 17 7 8 12 16 10 8 13 13 16 17 14 15 10 6 11 16 9 1 17 20 -3 9 18 2 11 16 11 19 12 -7 -21 -11 14 14 30 45 11 1 11 4 13 -3 -29 4 34 20 7 -0 -16 -14 14 22 12 22 27 21 19 -3 -14 6 14 8 5 -2 -2 10 14 7 6 9 8 7 8 9 7
3 2 9 17 16 13 15 16 10 5 12 19 12 10 14 13 14 10 5 10 18 21 11 3 8 11 9 13 20 18 8 15 12 -4 7 12 1 11 16 16 14 7 14 -3 -19 5 8 26 50 9 1 22 -4 6 24 -13 -16 14 19 20 14 -9 -20 -4 9 9 16 18 11 21 25 2 -8 4 12 10 3 -2 4 12 9 5 7 8 6 6 7 5
4 2 3 12 18 13 14 18 13 9 10 10 6 10 18 15 10 6 1 6 18 20 7 2 8 11 14 13 15 21 20 21 12 1 14 15 9 21 18 15 15 3 14 12 -8 -1 -2 25 70 26 -9 21 9 -4 18 10 -3 -7 -6 15 16 3 3 0 -1 7 11 14 10 8 20 24 11 3 7 12 9 2 1 6 8 7 6 7 6 4 5 4
4 4 1 6 17 15 13 17 15 13 11 6 5 10 15 15 13 7 1 7 18 16 9 10 10 8 11 9 14 24 19 17 16 2 8 19 16 22 17 10 15 6 10 13 -6 -17 -33 -16 58 57 4 8 16 3 6 14 16 1 -7 9 -0 -9 20 23 -3 -1 12 15 9 -3 -3 15 25 16 10 15 11 5 10 9 4 6 7 6 5 2 4 4
3 6 2 3 12 14 14 16 15 14 12 8 8 12 12 10 14 12 6 10 17 21 25 19 9 12 15 3 7 23 14 6 16 7 7 27 24 16 16 14 14 9 10 13 1 -2 -22 -44 13 63 25 -2 12 14 6 7 15 11 5 12 -5 -26 9 41 16 -7 6 16 8 2 5 13 21 16 6 10 12 7 10 9 2 3 5 6 5 2 2 4
4 6 4 3 7 12 15 15 14 14 14 11 9 11 13 9 11 11 9 10 7 13 31 26 9 9 12 5 4 15 12 2 9 12 13 28 25 13 16 17 13 10 12 16 11 19 10 -33 -11 51 35 3 16 17 4 4 7 7 5 9 3 -15 -8 24 26 -4 -9 10 12 7 10 11 17 22 11 4 7 8 9 10 5 2 3 4 3 3 3 3
8 8 5 4 4 10 17 14 12 13 15 16 11 8 12 12 12 9 8 15 9 4 16 18 15 15 8 8 8 7 11 7 2 8 13 18 22 18 16 15 15 13 8 7 6 15 20 -13 -22 19 30 21 26 14 2 10 8 4 6 -1 -6 -1 0 4 17 14 -2 -4 -1 4 15 12 5 16 21 13 9 7 7 12 11 3 2 4 2 3 5 3
10 10 7 6 3 6 15 15 12 11 12 17 15 10 11 9 13 14 7 11 13 9 11 6 13 29 18 7 6 2 9 12 2 3 8 11 15 17 17 13 14 16 9 7 9 11 18 9 -14 -7 16 25 20 7 4 14 12 3 11 7 -16 -13 9 7 3 14 12 -1 -8 -4 14 19 9 11 15 13 16 15 6 5 12 9 2 3 4 3 4 4
11 11 7 8 6 3 11 15 14 12 10 14 16 14 15 9 9 14 11 10 10 9 14 8 5 20 20 12 11 3 0 9 10 6 7 13 15 12 17 16 12 17 16 12 16 14 10 11 -2 -6 17 29 17 8 7 9 12 6 7 16 -6 -26 -9 5 3 6 6 2 1 -1 5 11 13 20 20 9 12 22 16 5 8 13 6 1 4 5 3 4
11 13 7 7 8 4 6 11 15 15 9 11 14 13 17 16 11 11 9 8 10 6 9 12 7 9 12 13 18 14 1 1 10 8 2 9 15 10 14 18 13 16 20 15 15 16 10 9 2 -9 8 31 28 20 16 10 12 10 5 10 6 -8 -10 -2 9 13 3 -2 1 2 5 2 -2 8 22 21 12 13 20 15 8 13 14 5 2 3 3 4
9 12 9 8 9 5 4 7 13 17 12 8 10 9 12 17 15 16 15 10 10 9 8 10 9 8 9 6 12 25 18 4 5 10 5 6 12 10 10 16 16 14 18 20 18 14 10 14 12 -7 -10 13 27 24 20 15 13 14 10 6 7 10 5 -1 6 9 4 6 5 -0 4 6 -3 -8 1 17 19 12 17 20 10 7 13 12 7 4 2 3
9 10 10 7 8 6 5 5 8 15 16 10 10 7 8 12 11 13 19 16 13 11 9 10 10 9 12 8 6 17 22 12 8 8 6 6 9 9 7 11 15 14 14 18 23 19 11 12 17 5 -12 -8 11 21 19 15 15 15 11 5 5 11 9 5 10 6 -1 4 3 -2 5 11 7 -1 -7 -0 12 15 17 20 16 9 10 14 13 10 6 3
8 9 10 8 7 6 6 5 4 9 15 15 13 10 6 8 10 9 13 17 18 17 13 12 11 8 11 12 9 11 13 12 11 9 5 7 7 7 8 9 11 14 14 13 18 23 18 11 12 12 2 -9 -5 11 17 14 13 14 13 10 9 11 10 8 10 8 1 2 4 3 9 12 9 8 5 -3 -4 7 15 14 14 13 11 12 13 11 9 6
10 8 10 10 9 7 6 6 4 4 10 14 16 15 9 7 8 8 9 12 14 18 19 18 17 13 10 9 11 13 10 6 8 10 8 9 9 7 8 10 9 10 13 13 14 19 21 18 13 10 10 5 -4 -1 11 18 16 12 12 15 11 8 10 10 10 7 0 2 8 4 4 10 11 11 16 7 -7 -3 9 11 11 10 9 11 11 10 9 7
11 8 8 10 11 9 6 6 5 3 5 9 12 16 15 12 8 6 9 10 9 11 16 19 21 21 16 11 9 11 12 11 10 10 7 5 8 7 5 8 10 8 9 10 10 13 16 20 23 16 11 13 8 1 2 11 17 16 12 13 13 10 11 12 13 12 4 2 9 7 1 5 10 9 15 19 11 3 2 5 9 9 7 8 9 10 10 7
10 10 8 9 11 12 8 6 5 3 3 4 6 10 15 16 15 10 7 8 8 7 8 11 17 23 24 22 16 9 9 12 12 13 12 7 7 9 7 7 9 9 9 9 9 10 10 13 20 21 17 15 14 10 6 2 7 16 15 11 12 13 14 13 10 10 7 3 7 12 8 6 9 11 8 11 18 17 8 3 4 6 8 7 6 8 10 9
9 10 9 8 9 11 11 9 6 4 4 4 3 5 8 12 16 17 12 8 8 7 7 6 8 13 21 27 28 21 12 10 10 12 14 13 11 11 9 8 8 8 9 10 8 9 10 9 11 14 17 20 16 13 12 9 7 12 15 14 11 8 10 12 10 10 9 3 0 6 10 10 11 13 9 3 8 17 17 9 4 6 10 10 7 8 9 11
Height
5856 5855 5855 5854 5854 5854 5853 5853 5853 5853 5853 5854 5854 5855 5855 5856 5856 5856 5857 5857 5858 5858 5859 5860 5861 5861 5862 5863 5864 5864 5865 5866 5867 5868 5870 5873 5874 5875 5876 5877 5879 5880 5882 5883 5884 5885 5887 5888 5889 5891 5892 5893 5894 5895 5895 5895 5896 5897 5897 5897 5898 5898 5897 5897 5896 5896 5895 5895 5897 5899 5900 5900 5901 5903 5903 5905 5908 5908 5908 5908 5908 5909 5909 5909 5909 5910 5911 5911
5853 5852 5851 5851 5851 5851 5851 5850 5850 5850 5851 5851 5851 5852 5852 5853 5854 5854 5854 5855 5856 5856 5857 5858 5858 5859 5860 5861 5862 5863 5863 5864 5865 5867 5869 5871 5872 5873 5874 5874 5877 5879 5880 5881 5882 5884 5885 5887 5888 5890 5891 5893 5894 5894 5894 5895 5896 5897 5897 5897 5897 5897 5898 5898 5897 5897 5897 5897 5897 5899 5900 5901 5902 5903 5905 5908 5910 5909 5909 5909 5909 5909 5909 5909 5909 5910 5912 5912
5849 5849 5848 5848 5848 5848 5847 5848 5848 5848 5848 5848 5848 5849 5849 5850 5851 5851 5852 5852 5853 5854 5855 5855 5856 5857 5858 5859 5860 5861 5862 5862 5863 5866 5868 5869 5870 5871 5872 5873 5875 5877 5878 5879 5881 5883 5885 5886 5888 5889 5891 5892 5893 5894 5894 5895 5896 5897 5898 5898 5898 5898 5898 5898 5897 5897 5898 5898 5898 5899 5900 5901 5903 5904 5906 5909 5909 5909 5911 5911 5910 5910 5909 5910 5910 5911 5912 5913
5846 5845 5845 5844 5844 5844 5844 5844 5844 5844 5845 5845 5845 5845 5846 5847 5847 5848 5849 5850 5850 5851 5852 5853 5854 5855 5856 5857 5858 5859 5860 5860 5862 5864 5866 5867 5869 5870 5870 5872 5874 5875 5877 5879 5881 5882 5884 5886 5887 5889 5891 5892 5893 5894 5894 5895 5895 5896 5897 5897 5898 5898 5898 5898 5898 5898 5898 5899 5899 5899 5900 5902 5904 5904 5906 5909 5909 5908 5910 5911 5911 5910 5910 5910 5911 5911 5912 5913
5842 5842 5841 5840 5840 5840 5840 5840 5840 5841 5841 5841 5841 5842 5842 5843 5844 5845 5846 5846 5847 5848 5849 5850 5852 5852 5853 5854 5855 5856 5857 5858 5860 5862 5863 5865 5866 5868 5869 5870 5872 5874 5876 5878 5879 5881 5883 5885 5886 5888 5889 5891 5892 5893 5894 5894 5895 5895 5896 5897 5898 5898 5898 5899 5899 5898 5899 5899 5899 5900 5901 5903 5904 5905 5906 5909 5909 5909 5910 5911 5911 5911 5911 5911 5912 5912 5912 5914
5839 5838 5838 5837 5836 5836 5836 5836 5836 5836 5837 5837 5837 5838 5838 5839 5840 5841 5842 5843 5844 5845 5846 5847 5849 5850 5851 5852 5853 5854 5854 5856 5859 5860 5862 5863 5864 5866 5867 5869 5871 5873 5874 5876 5878 5880 5882 5883 5885 5887 5888 5889 5891 5892 5893 5894 5895 5895 5896 5897 5898 5898 5898 5899 5899 5898 5898 5899 5899 5899 5901 5903 5904 5905 5907 5908 5909 5910 5910 5911 5911 5912 5912 5912 5912 5912 5913 5914
5836 5835 5834 5833 5832 5832 5831 5831 5831 5832 5832 5832 5833 5833 5834 5835 5836 5837 5838 5839 5841 5842 5843 5844 5846 5847 5848 5849 5850 5851 5851 5854 5857 5857 5860 5861 5862 5864 5866 5868 5870 5871 5873 5875 5877 5878 5880 5882 5883 5885 5886 5887 5889 5890 5892 5893 5894 5895 5896 5897 5898 5898 5898 5899 5899 5899 5898 5898 5899 5899 5901 5902 5904 5906 5906 5907 5908 5909 5910 5910 5911 5912 5913 5913 5913 5913 5913 5914
5833 5832 5831 5830 5829 5828 5827 5827 5827 5827 5827 5827 5828 5829 5830 5831 5832 5833 5834 5835 5837 5838 5839 5841 5842 5843 5845 5846 5847 5848 5848 5852 5854 5855 5858 5859 5860 5862 5864 5866 5868 5870 5872 5874 5875 5876 5878 5879 5881 5883 5884 5885 5886 5889 5891 5893 5894 5894 5895 5896 5897 5897 5898 5898 5898 5899 5898 5898 5898 5899 5900 5901 5903 5905 5905 5906 5908 5909 5909 5910 5911 5912 5913 5913 5914 5914 5914 5915
5829 5828 5827 5825 5824 5824 5823 5823 5822 5822 5822 5823 5823 5824 5825 5826 5827 5829 5830 5831 5833 5834 5835 5837 5838 5840 5841 5843 5844 5844 5846 5849 5851 5852 5855 5856 5858 5860 5862 5864 5866 5868 5870 5871 5873 5874 5876 5877 5879 5880 5881 5882 5884 5887 5889 5891 5892 5893 5894 5895 5897 5897 5897 5898 5898 5898 5898 5898 5897 5897 5898 5900 5902 5904 5906 5907 5908 5908 5909 5910 5911 5912 5912 5913 5914 5914 5914 5915
5826 5824 5823 5821 5820 5819 5819 5818 5818 5817 5817 5818 5819 5819 5820 5821 5822 5824 5825 5826 5828 5830 5831 5832 5834 5836 5838 5839 5840 5841 5844 5846 5848 5850 5852 5854 5856 5858 5860 5861 5863 5865 5867 5869 5871 5873 5874 5876 5877 5878 5879 5882 5884 5886 5888 5889 5890 5892 5893 5894 5896 5897 5897 5897 5898 5898 5897 5897 5896 5896 5897 5899 5901 5904 5906 5907 5908 5908 5909 5910 5911 5912 5912 5913 5913 5914 5914 5915
5822 5821 5819 5817 5816 5815 5815 5814 5813 5813 5813 5813 5814 5814 5815 5816 5817 5818 5820 5821 5823 5825 5826 5828 5830 5832 5834 5836 5836 5838 5842 5843 5845 5847 5849 5851 5853 5855 5857 5859 5861 5862 5864 5867 5869 5870 5872 5873 5875 5878 5880 5881 5883 5885 5887 5888 5890 5892 5893 5894 5895 5896 5896 5897 5897 5898 5897 5896 5895 5896 5897 5899 5902 5904 5906 5907 5908 5908 5909 5910 5911 5911 5912 5913 5913 5914 5915 5915
5819 5817 5816 5814 5812 5811 5810 5810 5809 5808 5808 5808 5809 5809 5810 5810 5811 5812 5814 5816 5818 5820 5822 5823 5825 5827 5829 5831 5832 5836 5839 5840 5842 5844 5846 5848 5850 5853 5855 5856 5858 5860 5862 5864 5866 5868 5870 5872 5875 5877 5878 5880 5882 5884 5885 5888 5890 5891 5892 5893 5894 5895 5896 5897 5898 5898 5897 5897 5896 5897 5897 5899 5902 5903 5905 5907 5908 5908 5909 5910 5910 5911 5912 5913 5914 5914 5915 5916
5815 5813 5812 5810 5808 5807 5806 5805 5804 5804 5804 5803 5803 5804 5804 5805 5806 5807 5808 5810 5812 5814 5816 5818 5820 5822 5824 5826 5829 5833 5834 5836 5839 5841 5843 5845 5847 5850 5852 5854 5856 5858 5860 5861 5863 5866 5868 5871 5874 5875 5877 5880 5881 5881 5884 5887 5889 5890 5891 5892 5893 5895 5896 5896 5897 5897 5897 5898 5898 5898 5899 5900 5902 5903 5904 5906 5908 5908 5909 5909 5910 5911 5912 5913 5914 5914 5915 5915
5811 5809 5808 5806 5805 5803 5802 5801 5799 5799 5799 5798 5798 5798 5799 5799 5800 5801 5803 5804 5806 5808 5810 5813 5815 5817 5819 5822 5826 5828 5830 5833 5835 5837 5839 5842 5844 5847 5849 5851 5853 5855 5858 5859 5861 5864 5868 5871 5872 5873 5877 5879 5879 5881 5885 5887 5888 5889 5890 5892 5893 5894 5895 5896 5897 5896 5898 5900 5899 5898 5900 5901 5902 5903 5904 5906 5908 5909 5909 5910 5910 5911 5912 5912 5913 5914 5915 5916
5807 5805 5803 5802 5800 5798 5797 5796 5795 5794 5794 5793 5793 5793 5793 5794 5794 5795 5797 5798 5800 5802 5804 5807 5809 5812 5815 5817 5821 5823 5826 5829 5831 5833 5836 5838 5841 5843 5846 5848 5850 5852 5855 5857 5860 5863 5867 5869 5871 5873 5876 5877 5879 5883 5885 5886 5888 5888 5889 5891 5892 5893 5894 5895 5896 5896 5899 5901 5899 5899 5899 5900 5902 5904 5905 5906 5907 5908 5908 5910 5910 5911 5912 5912 5913 5914 5915 5916
5802 5800 5798 5796 5795 5793 5792 5790 5789 5788 5788 5787 5787 5787 5787 5787 5788 5789 5790 5792 5794 5796 5799 5801 5804 5807 5808 5812 5816 5819 5821 5824 5826 5830 5832 5835 5837 5840 5843 5845 5847 5850 5852 5855 5858 5861 5864 5866 5869 5872 5874 5876 5878 5882 5884 5885 5887 5887 5888 5890 5891 5892 5893 5895 5895 5894 5898 5901 5899 5899 5899 5899 5901 5904 5905 5906 5906 5906 5908 5909 5910 5911 5912 5912 5913 5914 5914 5915
5798 5796 5794 5791 5790 5788 5786 5785 5783 5782 5781 5781 5780 5781 5781 5781 5782 5783 5784 5786 5788 5790 5793 5795 5798 5801 5803 5808 5812 5813 5816 5820 5823 5826 5828 5831 5834 5837 5840 5842 5845 5847 5850 5853 5855 5858 5860 5862 5865 5868 5871 5874 5877 5880 5881 5883 5885 5887 5888 5889 5890 5891 5892 5894 5894 5894 5897 5899 5898 5898 5899 5899 5901 5902 5904 5906 5906 5906 5908 5909 5909 5910 5912 5912 5912 5913 5914 5915
5795 5792 5789 5787 5784 5782 5780 5778 5777 5776 5775 5775 5774 5774 5774 5775 5776 5777 5778 5780 5782 5784 5786 5789 5792 5795 5797 5802 5805 5807 5811 5815 5818 5822 5825 5828 5831 5834 5837 5840 5842 5845 5847 5850 5853 5855 5857 5860 5862 5864 5868 5871 5875 5877 5879 5882 5885 5887 5888 5889 5890 5891 5892 5893 5893 5893 5895 5898 5898 5899 5898 5899 5900 5901 5903 5905 5905 5905 5907 5908 5909 5910 5911 5912 5912 5913 5913 5915
5791 5789 5785 5782 5780 5778 5775 5773 5771 5770 5769 5769 5769 5768 5768 5769 5770 5771 5772 5773 5775 5777 5780 5783 5786 5788 5790 5795 5797 5801 5806 5810 5814 5817 5820 5824 5827 5831 5833 5836 5839 5842 5845 5847 5850 5852 5855 5857 5859 5861 5863 5867 5871 5875 5879 5882 5885 5887 5887 5888 5888 5890 5893 5892 5892 5893 5893 5895 5897 5899 5898 5897 5899 5900 5902 5904 5904 5905 5906 5907 5908 5909 5910 5911 5912 5912 5913 5914
5788 5786 5783 5780 5777 5774 5772 5769 5767 5765 5763 5763 5762 5762 5763 5763 5764 5765 5766 5767 5769 5771 5774 5778 5780 5782 5786 5789 5792 5797 5802 5806 5809 5813 5816 5820 5824 5827 5830 5833 5836 5839 5842 5844 5847 5850 5852 5855 5857 5860 5862 5866 5870 5873 5878 5880 5881 5884 5886 5886 5886 5890 5893 5890 5890 5892 5893 5894 5895 5897 5897 5897 5898 5899 5900 5902 5903 5905 5906 5905 5906 5908 5909 5910 5910 5911 5912 5913
5786 5783 5780 5777 5774 5772 5769 5767 5764 5762 5760 5758 5757 5756 5757 5757 5758 5759 5760 5762 5762 5765 5768 5771 5774 5776 5779 5783 5788 5793 5797 5799 5803 5808 5812 5816 5820 5823 5826 5830 5832 5836 5839 5841 5844 5847 5850 5852 5855 5859 5862 5865 5867 5871 5874 5874 5875 5880 5883 5884 5885 5889 5891 5888 5889 5891 5892 5894 5893 5894 5897 5897 5897 5898 5899 5900 5901 5904 5905 5905 5907 5908 5908 5909 5910 5910 5912 5913
5783 5781 5778 5775 5772 5769 5767 5764 5762 5759 5757 5755 5753 5752 5752 5753 5754 5754 5756 5756 5757 5759 5762 5765 5769 5771 5774 5780 5785 5790 5793 5795 5799 5803 5808 5812 5816 5819 5822 5826 5829 5833 5835 5837 5841 5844 5847 5850 5854 5857 5859 5861 5864 5868 5868 5867 5872 5878 5880 5881 5884 5888 5888 5885 5888 5890 5891 5893 5892 5893 5896 5896 5896 5897 5899 5900 5901 5903 5904 5905 5907 5907 5907 5908 5909 5910 5911 5913
5782 5779 5776 5773 5770 5768 5765 5762 5760 5757 5755 5753 5751 5750 5750 5750 5750 5751 5752 5752 5753 5755 5757 5760 5763 5766 5770 5775 5779 5784 5788 5792 5795 5799 5804 5809 5812 5815 5819 5822 5826 5829 5831 5834 5837 5841 5844 5849 5853 5855 5856 5858 5862 5864 5863 5865 5872 5876 5877 5880 5884 5886 5886 5885 5888 5889 5889 5892 5892 5893 5895 5894 5895 5897 5898 5899 5901 5902 5903 5904 5905 5906 5907 5908 5909 5910 5911 5913
5781 5778 5775 5772 5769 5766 5763 5761 5758 5755 5753 5751 5750 5749 5748 5748 5748 5748 5749 5749 5750 5751 5753 5756 5759 5762 5765 5769 5774 5779 5782 5786 5790 5795 5801 5805 5808 5812 5816 5819 5822 5825 5827 5830 5834 5838 5842 5847 5851 5853 5854 5857 5859 5860 5862 5867 5871 5873 5875 5879 5882 5885 5887 5887 5885 5885 5888 5890 5891 5893 5895 5894 5894 5895 5896 5898 5899 5901 5902 5903 5904 5905 5907 5908 5909 5911 5912 5913
5780 5777 5774 5770 5768 5765 5762 5760 5757 5754 5751 5750 5748 5747 5747 5746 5746 5746 5747 5747 5748 5749 5750 5752 5756 5759 5761 5767 5772 5774 5777 5781 5785 5790 5796 5800 5804 5808 5813 5816 5820 5822 5824 5828 5832 5836 5839 5843 5847 5849 5850 5853 5856 5858 5862 5866 5868 5870 5873 5876 5880 5885 5887 5883 5880 5884 5887 5889 5890 5893 5896 5896 5894 5894 5896 5897 5898 5900 5901 5902 5903 5905 5906 5907 5908 5910 5912 5914
5779 5776 5772 5769 5766 5764 5761 5758 5755 5753 5750 5749 5748 5746 5746 5745 5745 5746 5746 5747 5747 5748 5749 5750 5753 5755 5758 5763 5766 5770 5776 5777 5779 5786 5791 5795 5799 5804 5810 5814 5817 5819 5821 5826 5830 5833 5836 5839 5842 5843 5845 5851 5854 5856 5860 5863 5865 5868 5870 5872 5876 5880 5883 5881 5880 5885 5888 5890 5891 5893 5896 5895 5893 5894 5895 5896 5897 5898 5900 5901 5903 5904 5905 5906 5908 5909 5912 5914
5778 5774 5771 5768 5765 5763 5760 5758 5755 5752 5750 5749 5747 5746 5745 5745 5745 5745 5745 5747 5747 5747 5747 5748 5750 5752 5754 5758 5762 5770 5775 5773 5777 5785 5788 5791 5795 5801 5805 5808 5812 5814 5817 5822 5826 5830 5833 5834 5836 5839 5844 5849 5851 5854 5858 5860 5864 5867 5868 5871 5872 5873 5877 5879 5879 5883 5889 5891 5890 5890 5893 5893 5892 5893 5893 5894 5896 5897 5898 5900 5902 5903 5904 5905 5907 5909 5911 5913
5777 5773 5770 5767 5764 5762 5760 5757 5754 5751 5750 5749 5748 5746 5745 5745 5745 5745 5745 5746 5746 5746 5746 5747 5750 5751 5754 5758 5762 5766 5767 5769 5778 5784 5786 5789 5793 5798 5802 5803 5807 5810 5813 5819 5823 5827 5828 5828 5833 5838 5843 5846 5848 5851 5855 5858 5862 5864 5864 5866 5869 5870 5873 5875 5877 5882 5887 5890 5890 5890 5891 5891 5890 5890 5891 5892 5894 5895 5898 5898 5900 5902 5903 5904 5905 5908 5910 5911
5776 5773 5770 5767 5764 5762 5759 5757 5754 5751 5750 5749 5748 5747 5746 5745 5744 5744 5745 5745 5745 5745 5746 5747 5749 5750 5753 5757 5759 5761 5762 5767 5772 5776 5782 5788 5790 5795 5797 5800 5805 5808 5811 5817 5822 5824 5824 5826 5833 5837 5840 5843 5845 5848 5852 5856 5860 5860 5859 5861 5864 5868 5870 5872 5876 5881 5883 5886 5889 5889 5889 5889 5889 5889 5890 5890 5891 5893 5896 5896 5897 5899 5901 5903 5905 5907 5908 5909
5776 5773 5770 5766 5764 5761 5759 5756 5754 5751 5750 5749 5748 5747 5746 5745 5744 5744 5745 5745 5745 5745 5746 5747 5748 5750 5753 5756 5758 5761 5764 5765 5766 5770 5777 5782 5787 5792 5794 5798 5803 5805 5809 5816 5820 5819 5820 5825 5832 5834 5837 5839 5842 5846 5849 5854 5857 5855 5855 5859 5862 5865 5868 5870 5875 5879 5880 5882 5884 5886 5888 5889 5887 5888 5889 5887 5888 5891 5893 5895 5896 5897 5898 5900 5902 5905 5907 5909
5776 5773 5769 5766 5764 5761 5759 5756 5753 5751 5750 5749 5747 5747 5746 5745 5744 5744 5745 5745 5745 5745 5746 5747 5748 5750 5752 5755 5758 5761 5763 5763 5766 5772 5776 5779 5783 5788 5791 5797 5802 5803 5807 5813 5815 5814 5815 5821 5825 5828 5831 5834 5838 5843 5846 5851 5853 5850 5852 5859 5862 5864 5867 5871 5874 5875 5876 5879 5882 5883 5888 5891 5886 5885 5886 5886 5887 5889 5890 5893 5895 5896 5897 5898 5899 5902 5904 5906
5775 5772 5769 5766 5763 5761 5759 5756 5754 5751 5750 5748 5747 5746 5746 5745 5745 5745 5745 5745 5745 5745 5745 5746 5748 5750 5753 5756 5758 5760 5761 5763 5767 5773 5776 5780 5784 5786 5790 5795 5799 5802 5806 5811 5812 5811 5813 5817 5821 5824 5826 5829 5834 5838 5842 5847 5848 5846 5852 5858 5860 5863 5866 5868 5870 5872 5873 5878 5881 5881 5887 5890 5885 5881 5884 5885 5886 5887 5888 5891 5894 5895 5896 5897 5898 5899 5901 5902
5775 5772 5769 5766 5763 5761 5759 5757 5754 5751 5750 5749 5747 5746 5746 5746 5745 5746 5746 5746 5746 5746 5746 5746 5748 5752 5755 5759 5760 5760 5762 5764 5768 5773 5775 5778 5782 5785 5787 5790 5794 5800 5806 5810 5811 5810 5812 5817 5821 5822 5824 5827 5832 5835 5840 5845 5844 5845 5852 5857 5858 5861 5863 5864 5867 5870 5871 5875 5879 5881 5885 5885 5880 5879 5882 5884 5885 5886 5887 5890 5892 5895 5895 5895 5896 5898 5901 5902
5775 5772 5769 5766 5764 5761 5759 5757 5754 5752 5750 5749 5747 5746 5746 5746 5746 5747 5746 5746 5746 5746 5747 5747 5749 5752 5755 5758 5760 5760 5763 5765 5768 5771 5773 5776 5780 5783 5785 5788 5791 5796 5801 5807 5810 5809 5812 5818 5819 5819 5822 5825 5829 5834 5839 5842 5842 5845 5851 5854 5857 5860 5861 5863 5867 5869 5871 5874 5878 5883 5885 5880 5877 5878 5879 5882 5885 5885 5886 5889 5891 5893 5893 5894 5895 5898 5901 5902
5775 5772 5769 5766 5764 5761 5759 5757 5755 5752 5750 5749 5748 5747 5746 5746 5747 5747 5746 5746 5747 5747 5748 5749 5750 5753 5754 5755 5757 5759 5763 5765 5766 5770 5774 5777 5781 5782 5783 5785 5789 5793 5797 5802 5807 5810 5813 5814 5812 5816 5821 5824 5828 5832 5833 5835 5838 5844 5848 5850 5854 5858 5862 5865 5868 5869 5871 5875 5877 5880 5879 5874 5874 5876 5877 5881 5884 5883 5884 5887 5889 5890 5892 5893 5895 5898 5900 5900
5774 5772 5769 5767 5764 5761 5759 5757 5755 5753 5751 5750 5748 5747 5747 5747 5747 5747 5747 5747 5747 5747 5748 5749 5751 5753 5754 5754 5755 5757 5761 5763 5766 5770 5773 5775 5776 5777 5778 5779 5784 5790 5794 5797 5802 5809 5814 5810 5807 5814 5819 5821 5826 5828 5827 5831 5836 5840 5844 5847 5851 5856 5860 5865 5868 5869 5871 5874 5876 5874 5872 5871 5874 5875 5875 5879 5881 5881 5883 5885 5887 5889 5891 5893 5895 5897 5899 5899
5774 5772 5769 5767 5764 5762 5759 5757 5755 5754 5752 5750 5749 5748 5748 5748 5748 5747 5747 5747 5747 5747 5748 5749 5752 5753 5754 5755 5756 5757 5760 5763 5766 5768 5770 5772 5772 5773 5776 5780 5784 5789 5792 5796 5800 5806 5811 5808 5805 5811 5815 5816 5821 5824 5825 5830 5834 5837 5842 5846 5849 5853 5856 5860 5864 5867 5869 5872 5874 5871 5868 5871 5874 5873 5874 5877 5878 5880 5881 5883 5886 5888 5889 5892 5894 5896 5898 5899
5774 5772 5769 5767 5764 5762 5760 5757 5755 5754 5752 5750 5750 5750 5749 5749 5748 5747 5747 5747 5747 5747 5748 5749 5751 5753 5754 5755 5756 5758 5760 5763 5765 5767 5769 5770 5771 5773 5776 5779 5782 5786 5790 5795 5797 5799 5804 5804 5803 5807 5811 5813 5818 5821 5824 5828 5831 5833 5837 5841 5845 5850 5852 5853 5858 5863 5866 5870 5873 5870 5866 5869 5872 5872 5872 5874 5875 5878 5881 5883 5885 5886 5888 5890 5892 5895 5897 5898
5774 5772 5770 5767 5764 5762 5760 5758 5756 5754 5752 5751 5751 5751 5749 5749 5748 5747 5746 5746 5747 5747 5748 5748 5750 5752 5754 5755 5756 5758 5760 5762 5765 5767 5768 5768 5769 5772 5774 5777 5780 5784 5787 5790 5791 5794 5799 5802 5802 5803 5806 5811 5815 5818 5821 5826 5829 5831 5834 5836 5841 5848 5851 5852 5855 5860 5863 5868 5870 5866 5863 5865 5867 5867 5868 5869 5872 5876 5881 5882 5883 5885 5887 5889 5891 5893 5895 5897
5774 5772 5770 5767 5764 5762 5760 5758 5756 5755 5753 5753 5753 5751 5749 5749 5748 5747 5747 5747 5747 5747 5748 5748 5749 5751 5752 5754 5756 5758 5760 5762 5764 5766 5766 5766 5767 5770 5772 5775 5778 5781 5785 5787 5790 5793 5797 5801 5802 5800 5804 5810 5813 5815 5817 5822 5826 5829 5832 5836 5839 5843 5847 5849 5853 5857 5860 5864 5867 5863 5860 5861 5862 5863 5864 5866 5869 5875 5879 5880 5881 5884 5886 5887 5890 5892 5894 5895
5773 5772 5770 5767 5765 5763 5760 5758 5757 5756 5754 5754 5753 5751 5750 5749 5748 5748 5748 5747 5748 5748 5748 5749 5749 5750 5751 5753 5754 5756 5759 5761 5762 5762 5763 5764 5765 5768 5770 5773 5776 5779 5782 5785 5789 5791 5793 5799 5802 5802 5805 5808 5808 5810 5814 5817 5820 5823 5827 5833 5837 5841 5843 5845 5850 5853 5855 5861 5865 5862 5857 5857 5860 5861 5862 5864 5868 5873 5876 5878 5880 5882 5884 5886 5888 5890 5892 5893
5773 5771 5770 5768 5766 5763 5761 5759 5758 5757 5755 5754 5753 5751 5750 5750 5749 5748 5748 5748 5749 5749 5749 5750 5750 5751 5751 5752 5753 5755 5757 5758 5759 5760 5761 5762 5764 5766 5769 5771 5774 5776 5779 5782 5784 5786 5790 5796 5801 5801 5802 5803 5804 5809 5814 5815 5817 5820 5822 5828 5834 5838 5840 5844 5849 5851 5852 5857 5861 5857 5852 5854 5857 5857 5859 5863 5867 5870 5873 5875 5878 5880 5882 5884 5886 5888 5890 5891
5772 5771 5769 5768 5766 5764 5762 5760 5758 5757 5756 5754 5753 5752 5751 5750 5749 5749 5749 5749 5749 5750 5750 5750 5751 5751 5752 5752 5753 5754 5755 5756 5758 5758 5759 5761 5762 5765 5767 5769 5772 5774 5777 5779 5781 5785 5790 5794 5797 5798 5798 5799 5804 5808 5810 5812 5815 5819 5823 5827 5830 5833 5837 5841 5844 5846 5848 5852 5855 5852 5848 5850 5852 5853 5856 5861 5863 5867 5870 5873 5875 5877 5880 5882 5884 5886 5888 5890
5771 5770 5769 5768 5766 5764 5762 5760 5759 5757 5756 5755 5753 5752 5751 5750 5750 5749 5749 5749 5749 5750 5750 5751 5751 5751 5752 5753 5753 5754 5755 5756 5757 5758 5759 5760 5762 5764 5766 5768 5770 5772 5775 5778 5780 5784 5788 5790 5793 5795 5796 5799 5801 5804 5806 5809 5812 5815 5819 5821 5823 5827 5831 5834 5836 5839 5842 5846 5851 5849 5845 5846 5849 5850 5854 5857 5859 5863 5866 5869 5872 5875 5877 5880 5882 5884 5886 5888
5771 5770 5768 5767 5766 5765 5763 5761 5760 5758 5757 5755 5754 5753 5751 5750 5750 5750 5749 5749 5749 5749 5749 5750 5751 5751 5752 5753 5753 5754 5755 5756 5757 5758 5759 5760 5761 5763 5765 5767 5769 5771 5773 5776 5779 5782 5784 5786 5789 5792 5794 5796 5798 5801 5804 5806 5808 5811 5813 5815 5819 5822 5826 5829 5833 5836 5838 5842 5846 5843 5840 5842 5846 5848 5851 5853 5856 5859 5862 5866 5869 5872 5874 5877 5879 5882 5884 5886
5770 5769 5768 5767 5766 5765 5763 5761 5760 5758 5757 5756 5755 5753 5752 5751 5750 5750 5750 5750 5749 5749 5749 5750 5750 5751 5751 5752 5753 5753 5754 5755 5756 5757 5758 5759 5761 5762 5764 5766 5767 5770 5772 5774 5776 5779 5781 5784 5786 5789 5791 5792 5794 5797 5800 5803 5807 5809 5810 5813 5817 5819 5822 5827 5830 5832 5835 5839 5840 5837 5837 5840 5842 5844 5847 5850 5852 5855 5858 5862 5865 5868 5871 5873 5876 5879 5881 5883
5769 5768 5767 5766 5765 5764 5763 5762 5760 5759 5757 5756 5755 5754 5753 5752 5751 5750 5750 5750 5749 5749 5749 5749 5750 5750 5750 5751 5752 5752 5753 5754 5755 5756 5758 5759 5760 5761 5763 5764 5766 5768 5770 5772 5774 5777 5779 5782 5784 5786 5787 5789 5791 5793 5797 5800 5802 5804 5807 5811 5814 5816 5820 5823 5825 5826 5830 5834 5833 5833 5836 5838 5838 5840 5844 5847 5850 5852 5855 5858 5861 5864 5867 5870 5872 5875 5877 5879
5768 5767 5766 5766 5765 5764 5763 5762 5761 5759 5758 5757 5756 5755 5754 5753 5752 5751 5750 5750 5749 5749 5749 5749 5749 5749 5750 5750 5751 5752 5753 5753 5754 5755 5757 5758 5759 5761 5762 5763 5765 5767 5768 5770 5772 5774 5776 5779 5780 5782 5784 5787 5789 5791 5793 5796 5798 5801 5805 5808 5810 5814 5816 5818 5819 5822 5828 5830 5829 5830 5833 5834 5834 5837 5840 5844 5848 5850 5852 5855 5857 5860 5863 5866 5868 5871 5873 5876
5767 5767 5766 5765 5764 5764 5763 5762 5761 5760 5758 5757 5756 5755 5754 5753 5752 5751 5751 5750 5749 5749 5748 5748 5748 5749 5749 5749 5750 5751 5751 5752 5753 5754 5756 5757 5758 5759 5760 5761 5763 5765 5767 5769 5770 5772 5774 5775 5777 5780 5782 5784 5786 5788 5790 5792 5795 5798 5801 5803 5806 5809 5810 5812 5815 5820 5825 5827 5825 5827 5829 5828 5829 5832 5835 5840 5845 5847 5849 5851 5853 5856 5859 5861 5864 5867 5869 5871
5766 5766 5765 5764 5764 5763 5762 5762 5761 5760 5759 5758 5757 5755 5754 5754 5753 5752 5751 5750 5750 5749 5748 5748 5748 5748 5748 5748 5749 5749 5750 5751 5752 5753 5754 5755 5756 5757 5758 5760 5761 5763 5765 5766 5768 5770 5771 5773 5775 5777 5779 5781 5783 5785 5787 5789 5792 5795 5796 5799 5802 5804 5807 5810 5813 5817 5821 5822 5822 5823 5823 5823 5826 5829 5832 5836 5841 5843 5845 5847 5849 5852 5854 5857 5860 5862 5865 5867
5766 5765 5764 5763 5763 5762 5762 5761 5760 5760 5759 5758 5757 5756 5755 5754 5753 5752 5751 5750 5750 5749 5749 5748 5748 5747 5747 5747 5748 5748 5749 5750 5750 5752 5753 5753 5754 5755 5757 5758 5760 5761 5763 5764 5766 5768 5769 5771 5773 5775 5776 5778 5781 5783 5784 5786 5789 5791 5793 5796 5798 5801 5803 5805 5808 5811 5815 5818 5819 5817 5817 5820 5823 5826 5830 5833 5835 5837 5840 5842 5845 5848 5850 5853 5856 5858 5861 5863
5764 5764 5763 5762 5762 5761 5761 5760 5760 5759 5759 5758 5757 5756 5755 5754 5753 5752 5752 5751 5750 5749 5749 5748 5748 5747 5746 5746 5746 5747 5747 5748 5749 5750 5751 5752 5753 5754 5755 5756 5758 5759 5761 5762 5764 5765 5766 5769 5771 5772 5774 5775 5777 5780 5781 5783 5786 5787 5789 5791 5793 5796 5797 5800 5804 5807 5810 5814 5815 5813 5813 5816 5819 5823 5827 5828 5829 5832 5835 5838 5841 5843 5846 5849 5851 5854 5857 5859